Location: Haliburton Scout Reserve
(45.0900°N, 78.3200°W)
Time: 10:58:17
(UTC-05:00)

N. Korean satellite - Pass Details

Date: 03 December 2021
Orbit: 447 x 491 km, 97.3° (Epoch: 23 January)

Event Time Altitude Azimuth Distance (km) Brightness Sun altitude
Rises 17:10:34 0° 189° (S) 2,533 10.7 -6.8°
Reaches altitude 10° 17:12:48 10° 200° (SSW) 1,650 10.0 -7.2°
Maximum altitude 17:15:58 30° 263° (W) 876 8.8 -7.7°
Drops below altitude 10° 17:19:07 10° 327° (NNW) 1,639 9.4 -8.2°
Sets 17:21:20 0° 338° (NNW) 2,512 10.2 -8.6°
